Regional Weather Roundup
Issued by NWS Jackson, KY

Home | Current Version | Previous Version | Text Only | Print | Product List | Glossary Off
Versions: 1 2 3 4 5 6 7 8 9 10 11 12 13 14 15 16 17 18 19 20 21 22 23 24 25 26 27

000
ASUS43 KJKL 210910
RWRJKL

EAST KENTUCKY HOURLY WEATHER ROUNDUP
NATIONAL WEATHER SERVICE JACKSON KY
400 AM EST SUN JAN 21 2018

NOTE: "FAIR" INDICATES FEW OR NO CLOUDS BELOW 12,000 FEET WITH
NO SIGNIFICANT WEATHER AND/OR OBSTRUCTIONS TO VISIBILITY.

* THESE REPORTS ARE NOT UNDER NWS QUALITY CONTROL AND MAY NOT
  REPORT WEATHER SUCH AS PRECIPITATION AND FOG.

KYZ079-080-083-085-087-088-110-112-115-119-120-211000
...EASTERN KENTUCKY...

CITY           SKY/WX    TMP DP  RH WIND       PRES   REMARKS
JACKSON        CLOUDY    48  35  60 CALM      30.17S
LONDON         CLOUDY    43  36  76 S3        30.18S
SOMERSET*      CLOUDY    45  36  70 S3        30.18S
WILLIAMSBURG*  CLOUDY    48  36  61 SE7       30.18F
MIDDLESBORO*   CLOUDY    38  35  90 CALM      30.21S
HARLAN APT*    CLOUDY    36  32  87 CALM      30.20F
PIKE CO APT*   CLOUDY    47  35  64 SE3       30.18R
BIG SANDY APT* CLOUDY    46  37  71 CALM      30.18S
MOREHEAD APT*  CLOUDY    50  37  62 SW9       30.16S
$$

KYZ035-036-041-042-044-050-067-078-099-211000
...CENTRAL KENTUCKY...

CITY           SKY/WX    TMP DP  RH WIND       PRES   REMARKS
MT STERLING*   CLOUDY    50  36  57 SW8       30.15F
FLEMING/MASON* CLOUDY    45  37  75 S5        30.15S
DANVILLE*      CLOUDY    46  37  71 SW8       30.15S
LEXINGTON      CLOUDY    49  38  65 S8        30.13S
FRANKFORT      CLOUDY    51  37  58 S8        30.10F
LOUISVILLE     MOCLDY    53  40  61 S8        30.09S
LEBANON*         N/A     50  37  62 S9        30.12F
GLASGOW*       CLOUDY    52  37  57 S7        30.13F
BOWLING GREEN    N/A     49  38  65 S8        30.13S
$$

KYZ091>093-OHZ055-061-077-WVZ005-015-034-035-042-211000
...SOUTHERN OHIO/WEST VIRGINIA...

CITY           SKY/WX    TMP DP  RH WIND       PRES   REMARKS
COVINGTON      CLOUDY    47  41  80 S7        30.08F
COLUMBUS       LGT RAIN  40  40 100 S6        30.11S VSB 1
DAYTON         CLOUDY    42  42 100 S10       30.08F FOG
WILMINGTON     CLOUDY    40  40 100 CALM      30.09F
HUNTINGTON     CLOUDY    50  35  56 S9        30.15S
CHARLESTON     CLOUDY    46  38  73 S5        30.16F
BECKLEY        CLOUDY    43  34  70 S6        30.18F
BLUEFIELD      CLOUDY    39  32  76 W6        30.19F WCI  35
LOGAN CO APT*  CLOUDY    46  36  66 CALM      30.18S
$$

VAZ002-007-008-TNZ017-027-036-066-071-211000
...SOUTHWEST VIRGINIA/EAST TENNESSEE...

CITY           SKY/WX    TMP DP  RH WIND       PRES   REMARKS
WISE*          CLOUDY    46  36  66 SW12      30.20F
JONESVILLE*    CLOUDY    36  32  87 CALM      30.24S
ABINGDON*      CLOUDY    38  35  89 CALM      30.22S
BRISTOL        CLOUDY    33  32  96 CALM      30.23F
MORRISTOWN*    CLOUDY    39  32  75 CALM      30.21S
SEVIERVILLE*   MOSUNNY   32  32 100 CALM      30.23R
KNOXVILLE        N/A     38  35  89 CALM      30.21S
LAFOLLETTE*    CLOUDY    36  34  93 CALM      30.24S
OAK RIDGE      CLOUDY    42  36  79 W3        30.22F
CROSSVILLE     CLOUDY    47  34  60 VRB3      30.20S
NASHVILLE      MOCLDY    53  38  56 S8        30.16S
$$

...KEY TO REMARKS...
VSB - VISIBILITY IN MILES
WCI - WIND CHILL INDEX
HX  - HEAT INDEX

$$




USA.gov is the U.S. government's official web portal to all federal, state and local government web resources and services.